FW3268 Weather Reports


Display with metric or nautical units.
time (UTC)temp
F
wind
direction
speed
MPH
gust
MPH
rain 1hr
in
rain 24hr
in
rain mn
in
humidity
%
barometer
mb
20260509160004 62 281 12.0 17.0 0.00 0.16 0.00 80 1006.9
20260509154501 61 252 14.0 20.0 0.00 0.16 0.00 80 1006.8
20260509151501 60 239 14.0 19.0 0.00 0.16 0.00 81 1006.8
20260509150005 59 248 12.0 16.0 0.00 0.16 0.00 81 1006.8
20260509144501 59 244 11.0 15.0 0.00 0.16 0.00 82 1006.7
20260509143001 59 281 11.0 17.0 0.00 0.16 0.00 80 1006.8
20260509141501 59 262 10.0 16.0 0.00 0.16 0.00 79 1006.8
20260509140006 59 278 7.0 13.0 0.00 0.16 0.00 81 1006.9
20260509134502 58 261 8.0 12.0 0.00 0.16 0.00 83 1006.9
20260509133001 57 240 10.0 15.0 0.00 0.16 0.00 84 1006.8
20260509131501 57 247 8.0 11.0 0.00 0.16 0.00 84 1006.6
20260509130005 56 233 8.0 10.0 0.00 0.16 0.00 88 1006.7
20260509124501 55 226 7.0 10.0 0.00 0.16 0.00 88 1006.6
20260509121501 54 252 5.0 7.0 0.00 0.16 0.00 92 1006.9
20260509120005 53 231 3.0 5.0 0.00 0.16 0.00 93 1007.0
20260509113001 52 219 4.0 7.0 0.00 0.16 0.00 93 1006.6
20260509111501 51 181 3.0 6.0 0.00 0.16 0.00 93 1006.3
20260509104501 51 233 2.0 2.0 0.00 0.18 0.00 91 1006.4
20260509103000 52 240 3.0 5.0 0.00 0.18 0.00 91 1006.4
20260509101459 53 249 5.0 7.0 0.00 0.18 0.00 92 1006.4
20260509100004 53 255 4.0 7.0 0.00 0.18 0.00 93 1006.6
20260509094501 52 243 2.0 4.0 0.00 0.21 0.00 93 1006.4
20260509091500 52 257 3.0 4.0 0.00 0.21 0.00 93 1006.6
20260509090003 51 232 2.0 4.0 0.00 0.21 0.00 93 1006.3
20260509084501 52 242 1.0 2.0 0.00 0.21 0.00 92 1006.4
20260509083000 52 224 2.0 3.0 0.00 0.21 0.00 92 1006.3
20260509074502 52 233 2.0 3.0 0.00 0.21 0.00 92 1006.6
20260509073000 53 245 3.0 4.0 0.00 0.21 0.00 92 1006.8
20260509071500 53 248 4.0 6.0 0.00 0.21 0.00 92 1006.9
20260509070003 53 231 5.0 7.0 0.00 0.21 0.00 92 1007.1
20260509063000 53 251 4.0 6.0 0.00 0.21 0.00 91 1007.6
20260509061501 53 231 5.0 7.0 0.00 0.21 0.00 91 1007.7
20260509060005 53 241 5.0 7.0 0.00 0.21 0.00 91 1007.9
20260509053000 53 223 6.0 10.0 0.00 0.21 0.00 91 1008.0
20260509051501 53 229 5.0 8.0 0.00 0.21 0.00 92 1007.8
20260509050005 53 223 3.0 4.0 0.00 0.21 0.00 92 1007.9
20260509044502 53 242 3.0 5.0 0.00 0.21 0.00 92 1007.8
20260509043002 53 248 3.0 4.0 0.00 0.21 0.00 92 1008.0
20260509041502 53 234 2.0 4.0 0.00 0.21 0.00 92 1008.0
20260509033002 54 217 3.0 5.0 0.00 0.21 0.21 92 1007.9
20260509031502 54 178 2.0 4.0 0.00 0.21 0.21 92 1007.9
20260509030005 54 243 3.0 5.0 0.00 0.21 0.21 91 1008.1
20260509021502 55 243 5.0 8.0 0.00 0.21 0.21 90 1008.2
20260509020003 55 236 4.0 6.0 0.00 0.21 0.21 90 1008.0
20260509013003 54 238 1.0 3.0 0.00 0.21 0.21 91 1008.1
20260509011501 55 226 3.0 5.0 0.00 0.21 0.21 91 1008.2
20260509004502 54 200 4.0 6.0 0.00 0.21 0.21 91 1008.2
20260509001502 54 198 5.0 7.0 0.00 0.21 0.21 90 1008.2
20260509000005 55 208 5.0 8.0 0.00 0.21 0.21 89 1008.3
20260508233001 55 219 6.0 8.0 0.00 0.21 0.21 89 1008.4
20260508231501 55 233 6.0 9.0 0.00 0.21 0.21 89 1008.5
20260508230007 55 237 8.0 10.0 0.00 0.21 0.21 87 1008.8
20260508224503 55 214 6.0 10.0 0.00 0.21 0.21 89 1008.4
20260508223002 55 216 8.0 11.0 0.01 0.21 0.21 89 1008.4
20260508221501 55 212 7.0 11.0 0.02 0.21 0.21 89 1008.5
20260508220005 55 212 7.0 11.0 0.03 0.21 0.21 89 1008.4
20260508214502 55 199 7.0 10.0 0.05 0.21 0.21 89 1008.2
20260508211501 55 260 7.0 13.0 0.07 0.19 0.19 89 1008.9
20260508210006 56 255 6.0 10.0 0.08 0.18 0.18 88 1009.1
20260508204501 56 274 4.0 7.0 0.07 0.16 0.16 88 1009.3
20260508203002 56 299 5.0 7.0 0.06 0.14 0.14 88 1009.4
20260508201503 56 296 4.0 8.0 0.06 0.12 0.12 86 1009.5
20260508200006 56 254 7.0 12.0 0.05 0.10 0.10 84 1009.6
20260508194502 57 262 10.0 15.0 0.04 0.09 0.09 82 1009.9
20260508193002 58 271 8.0 12.0 0.03 0.08 0.08 80 1009.9
20260508191501 59 245 7.0 10.0 0.01 0.06 0.06 77 1009.7
20260508184502 59 266 9.0 16.0 0.00 0.05 0.05 76 1009.9
20260508181501 63 283 13.0 21.0 0.00 0.05 0.05 64 1009.9
20260508180004 63 255 13.0 18.0 0.00 0.05 0.05 64 1009.9
20260508174501 64 242 12.0 18.0 0.00 0.05 0.05 66 1010.1
20260508173002 63 276 13.0 18.0 0.00 0.05 0.05 67 1010.2
20260508171501 63 265 11.0 16.0 0.00 0.05 0.05 67 1010.3
20260508170004 62 259 11.0 16.0 0.00 0.05 0.05 68 1010.5
20260508164501 62 230 12.0 18.0 0.00 0.05 0.05 68 1011.2
20260508163001 61 264 9.0 14.0 0.00 0.05 0.05 69 1011.3
20260508161501 61 283 9.0 14.0 0.00 0.05 0.05 69 1011.5